Regional Weather Roundup
Issued by NWS

Home | Current Version | Previous Version | Text Only | Print | Product List | Glossary On
Versions: 1 2 3 4 5 6 7 8 9 10 11 12 13 14 15 16 17 18 19 20 21 22 23 24 25 26 27 28 29 30 31 32 33 34 35 36 37 38 39 40 41 42 43 44 45 46 47 48 49 50
000
ASUS44 KJAN 291010
RWRMS

MISSISSIPPI HOURLY WEATHER ROUNDUP
NATIONAL WEATHER SERVICE JACKSON MS
500 AM CDT FRI AUG 29 2014

NOTE: "FAIR: INDICATES FEW OR NO CLOUDS BELOW 12,000 FEET WITH NO
SIGNIFICANT WEATHER AND/OR OBSTRUCTIONS TO VISIBILITY.

MSZ001>002-007>008-010>013-018>021-025>028-034>036-291100-
NORTHWEST MISSISSIPPI

CITY           SKY/WX    TMP DP  RH WIND       PRES   REMARKS
CLARKSDALE     FAIR      70  68  94 CALM      29.96R
CLEVELAND      FAIR      72  70  94 S5        29.95R
GREENWOOD      PTCLDY    70  67  90 NE5       29.96S
GREENVILLE     CLEAR     73  70  90 SE3       29.94S
GRENADA        FAIR      68  64  88 CALM      29.97S
OLIVE BRANCH   CLEAR     72  72 100 SE3       29.97R
OXFORD         FAIR      66  64  94 CALM      29.98F
TUNICA         SUNNY     68  64  88 CALM      29.96R
$$

MSZ003>006-009-014>017-022>024-029>033-037>039-291100-
NORTHEAST MISSISSIPPI

CITY           SKY/WX    TMP DP  RH WIND       PRES   REMARKS
BELMONT        FAIR      67  66  97 CALM      30.00S
COLUMBUS AFB   PTCLDY    67  63  89 SE2       29.98S
CORINTH          N/A     68  66  94 CALM      29.98S FOG
GOLDN TRIANGLE MOCLDY    72  63  73 CALM      29.99S
STARKVILLE     FAIR      66  64  94 CALM      29.98S
TUPELO         PTCLDY    70  67  90 CALM      29.98S
$$

MSZ040-058-291100-
CENTRAL MISSISSIPPI

CITY           SKY/WX    TMP DP  RH WIND       PRES   REMARKS
JACKSON INTL   CLOUDY    74  72  93 CALM      29.97R
JACKSON HAWKNS MOCLDY    76  71  85 CALM      29.97S
MERIDIAN KEY   CLOUDY    68  66  93 CALM      29.99R
MERIDIAN NAS   CLOUDY    68  66  93 CALM      29.99R
RAYMOND        FAIR      72  66  83 CALM      29.97R HAZE
VICKSBURG      CLEAR     72  70  93 S3        29.95S
$$

MSZ059>079-291100-
SOUTH MISSISSIPPI

CITY           SKY/WX    TMP DP  RH WIND       PRES   REMARKS
BROOKHAVEN     FAIR      72  72 100 CALM      29.99R FOG
COLUMBIA       FAIR      70  70 100 CALM      29.96S FOG
HATTIESBURG    CLEAR     70  68  93 CALM      29.98S FOG
MCCOMB         MOCLDY    75  72  90 CALM      29.96S
NATCHEZ        PTCLDY    75  72  88 CALM      29.96S
PINE BELT      CLEAR     70  64  83 CALM      29.99R
$$

MSZ080>082-291100-
COASTAL MISSISSIPPI

CITY           SKY/WX    TMP DP  RH WIND       PRES   REMARKS
BILOXI         CLEAR     76  72  87 NE6       29.95S
PASCAGOULA     CLEAR     69  69 100 CALM      29.96S
GULFPORT       CLEAR     76  72  87 CALM      29.94F
$$



USA.gov is the U.S. government's official web portal to all federal, state and local government web resources and services.